GalileoSat-16

operational
NORAD ID: 41860 Int'l Des: 2016-069 Owner: GSAEU Country: I-EU Constellation: Galileo
MEOCIRCULAR

GalileoSat-16について

説明を読み込み中...

リアルタイム位置

3D地球を読み込み中...

次回通過

高度履歴

Altitude vs Time

uPlot chart will show altitude changes over time

軌道要素

1 41860U 16069B 25345.47896352 .00000008 00000-0 00000+0 0 9991
2 41860 55.3791 106.2805 0002164 27.6057 332.3763 1.70474595 56452
Epoch: Dec 11, 2025 • Age: 61 hours

現在のステータス

高度 23227.9 km
速度 3.67 km/s
衛星直下点 46.47°N, 150.29°E
打ち上げ日 Nov 17, 2016
運用期間 9 years
タイプ navigation

技術仕様

分類 Payload
質量 738.00 kg
乾燥質量 700.00 kg
総質量 738.00 kg
長さ 2.70 m
直径 1.60 m
スパン 14.50 m
形状 Box+2 pan
製造者 OHB
バスタイプ GalileoSat
フェーズステータス In Orbit
所有者/国 GSAEU/I-EU

大規模コンステレーション

Loading constellations...